Location: Demre
(36.2444°N, 29.9850°E)
Time: 04:50:52
(UTC+00:00)

Cosmos 2297 - Pass Details

Date: 11 March 2026
Orbit: 833 x 858 km, 71.0° (Epoch: 21 April)

Event Time Altitude Azimuth Distance (km) Brightness Sun altitude
Rises 17:17:37 0° 182° (S) 3,365 6.8 -15.7°
Reaches altitude 10° 17:20:07 10° 176° (S) 2,437 6.0 -16.2°
Maximum altitude 17:25:24 44° 105° (ESE) 1,142 3.9 -17.2°
Drops below altitude 10° 17:30:43 10° 35° (NE) 2,465 5.9 -18.3°
Sets 17:33:16 0° 29° (NNE) 3,407 6.7 -18.8°
